Weather History for Cape Cod CGAS, MA

Change the Weather History Date:

Monday, July 8, 2013

  Actual Average Record
Temperature  
Mean Temperature 76 °F -  
Max Temperature 82 °F 76 °F 86 °F (2002)
Min Temperature 69 °F 60 °F 50 °F (2000)
Cooling Degree Days 10    
Growing Degree Days 26 (Base 50)    
Moisture  
Dew Point 70 °F    
Average Humidity 82    
Maximum Humidity 100    
Minimum Humidity 62    
Precipitation  
Precipitation 0.00 in - - ()
Sea Level Pressure  
Sea Level Pressure 29.98 in    
Wind  
Wind Speed 9 mph (WSW)    
Max Wind Speed 21 mph    
Max Gust Speed 28 mph    
Visibility 9 miles    
Events Thunderstorm    
Averages and records for this station are not official NWS values.
T = Trace of Precipitation, MM = Missing Value Source: NWS Daily Summary

Daily Weather History Graph

Daily Weather History Graph

Search for Another Location

Airport:

Trip Planner

Search our weather history database for the weather conditions in past years. The results will help you decide how hot, cold, wet, or windy it might be!

Date:

Astronomy

Jul. 08, 2013 Rise Set
Actual Time 5:15 AM EDT 8:18 PM EDT
Civil Twilight 4:42 AM EDT 8:51 PM EDT
Nautical Twilight 3:59 AM EDT 9:34 PM EDT
Astronomical Twilight 3:08 AM EDT 10:24 PM EDT
Moon 5:43 AM EDT (7/8) 8:17 PM EDT (7/8)
Length of Visible Light 16h 09m
Length of Day
15h 02m
New Moon, 0% of the Moon is Illuminated
Jul 8
New Moon
Jul 15
First Quarter
Jul 22
Full
Jul 29
Last Quarter
Aug 6
New

Hourly Weather History & Observations

Time (EDT) Temp. Heat Index Dew Point Humidity Pressure Visibility Wind Dir Wind Speed Gust Speed Precip Events Conditions
12:15 AM 71.6 °F - 71.6 °F 100% 29.97 in 5.0 mi SW 4.6 mph - N/A   Overcast
12:35 AM 71.6 °F - 71.6 °F 100% 29.96 in 6.0 mi SSW 4.6 mph - N/A   Overcast
12:55 AM 71.6 °F - 71.6 °F 100% 29.95 in 7.0 mi SSW 6.9 mph - N/A   Overcast
1:15 AM 71.6 °F - 71.6 °F 100% 29.95 in 5.0 mi SSW 5.8 mph - N/A   Overcast
1:35 AM 71.6 °F - 71.6 °F 100% 29.95 in 7.0 mi SW 6.9 mph - N/A   Overcast
1:55 AM 71.6 °F - 71.6 °F 100% 29.96 in 6.0 mi SW 5.8 mph - N/A   Overcast
2:15 AM 71.6 °F - 71.6 °F 100% 29.96 in 8.0 mi WSW 8.1 mph - N/A   Overcast
2:35 AM 71.6 °F - 71.6 °F 100% 29.96 in 8.0 mi SW 4.6 mph - N/A   Overcast
2:55 AM 71.6 °F - 71.6 °F 100% 29.96 in 7.0 mi SW 4.6 mph - N/A   Overcast
3:15 AM 71.6 °F - 71.6 °F 100% 29.96 in 8.0 mi WSW 5.8 mph - N/A   Overcast
3:35 AM 71.6 °F - 71.6 °F 100% 29.96 in 8.0 mi WSW 5.8 mph - N/A   Overcast
3:55 AM 71.6 °F - 69.8 °F 94% 29.96 in 8.0 mi WSW 4.6 mph - N/A   Overcast
4:15 AM 71.6 °F - 69.8 °F 94% 29.95 in 8.0 mi SW 4.6 mph - N/A   Overcast
4:35 AM 71.6 °F - 69.8 °F 94% 29.95 in 8.0 mi SSW 4.6 mph - N/A   Overcast
4:55 AM 69.8 °F - 69.8 °F 100% 29.95 in 7.0 mi SW 4.6 mph - N/A   Overcast
5:15 AM 69.8 °F - 69.8 °F 100% 29.95 in 7.0 mi SW 4.6 mph - N/A   Overcast
5:35 AM 69.8 °F - 69.8 °F 100% 29.96 in 6.0 mi SW 3.5 mph - N/A   Mostly Cloudy
5:55 AM 71.6 °F - 69.8 °F 94% 29.96 in 6.0 mi SW 5.8 mph - N/A   Partly Cloudy
6:15 AM 71.6 °F - 69.8 °F 94% 29.96 in 5.0 mi SW 8.1 mph - N/A   Clear
6:55 AM 75.2 °F - 71.6 °F 89% 29.96 in 10.0 mi SW 10.4 mph - N/A   Clear
7:15 AM 75.2 °F - 68.0 °F 78% 29.96 in 10.0 mi WSW 13.8 mph 18.4 mph N/A   Clear
7:35 AM 77.0 °F - 68.0 °F 74% 29.96 in 10.0 mi WSW 12.7 mph 18.4 mph N/A   Clear
7:55 AM 77.0 °F - 68.0 °F 74% 29.97 in 10.0 mi WSW 12.7 mph - N/A   Clear
8:15 AM 77.0 °F - 68.0 °F 74% 29.97 in 10.0 mi WSW 18.4 mph 24.2 mph N/A   Clear
8:35 AM 77.0 °F - 68.0 °F 74% 29.97 in 10.0 mi SW 17.3 mph 20.7 mph N/A   Clear
8:55 AM 77.0 °F - 68.0 °F 74% 29.97 in 10.0 mi WSW 15.0 mph 23.0 mph N/A   Clear
9:15 AM 77.0 °F - 68.0 °F 74% 29.97 in 10.0 mi WSW 13.8 mph 20.7 mph N/A   Clear
9:35 AM 77.0 °F - 68.0 °F 74% 29.97 in 10.0 mi WSW 16.1 mph 20.7 mph N/A   Clear
9:55 AM 78.8 °F - 69.8 °F 74% 29.97 in 10.0 mi WSW 17.3 mph 24.2 mph N/A   Clear
10:15 AM 80.6 °F 83.9 °F 69.8 °F 70% 29.97 in 10.0 mi WSW 12.7 mph 19.6 mph N/A   Clear
10:35 AM 80.6 °F 83.9 °F 69.8 °F 70% 29.97 in 10.0 mi SW 17.3 mph 20.7 mph N/A   Clear
10:55 AM 80.6 °F 84.6 °F 71.6 °F 74% 29.97 in 10.0 mi SW 13.8 mph 19.6 mph N/A   Clear
11:15 AM 78.8 °F - 69.8 °F 74% 29.97 in 10.0 mi WSW 13.8 mph - N/A   Clear
11:35 AM 80.6 °F 84.6 °F 71.6 °F 74% 29.98 in 10.0 mi WSW 11.5 mph 17.3 mph N/A   Clear
11:55 AM 82.4 °F 87.2 °F 71.6 °F 70% 29.98 in 10.0 mi WSW 12.7 mph 18.4 mph N/A   Clear
12:15 PM 82.4 °F 87.2 °F 71.6 °F 70% 29.98 in 10.0 mi SW 11.5 mph - N/A   Clear
12:35 PM 82.4 °F 87.2 °F 71.6 °F 70% 29.98 in 10.0 mi WSW 13.8 mph - N/A   Clear
12:55 PM 82.4 °F 87.2 °F 71.6 °F 70% 29.98 in 10.0 mi SW 13.8 mph - N/A   Clear
1:15 PM 82.4 °F 87.2 °F 71.6 °F 70% 29.98 in 10.0 mi SW 15.0 mph 18.4 mph N/A   Clear
1:35 PM 80.6 °F 84.6 °F 71.6 °F 74% 29.98 in 10.0 mi SW 17.3 mph - N/A   Clear
1:55 PM 82.4 °F 87.2 °F 71.6 °F 70% 29.98 in 10.0 mi SW 16.1 mph 21.9 mph N/A   Clear
2:15 PM 82.4 °F 87.2 °F 71.6 °F 70% 29.98 in 10.0 mi WSW 19.6 mph - N/A   Clear
2:35 PM 82.4 °F 87.2 °F 71.6 °F 70% 29.98 in 10.0 mi SW 16.1 mph 20.7 mph N/A   Clear
2:55 PM 82.4 °F 87.2 °F 71.6 °F 70% 29.98 in 10.0 mi SW 20.7 mph 26.5 mph N/A   Clear
3:15 PM 82.4 °F 87.2 °F 71.6 °F 70% 29.98 in 10.0 mi SW 15.0 mph 23.0 mph N/A   Clear
3:35 PM 82.4 °F 87.2 °F 71.6 °F 70% 29.97 in 10.0 mi WSW 17.3 mph 20.7 mph N/A   Clear
3:55 PM 82.4 °F 87.2 °F 71.6 °F 70% 29.98 in 10.0 mi SW 16.1 mph 24.2 mph N/A   Clear
4:15 PM 82.4 °F 86.3 °F 69.8 °F 66% 29.98 in 10.0 mi WSW 15.0 mph 27.6 mph N/A   Clear
4:35 PM 82.4 °F 86.3 °F 69.8 °F 66% 29.98 in 10.0 mi SW 17.3 mph 25.3 mph N/A   Clear
4:55 PM 82.4 °F 85.4 °F 68.0 °F 62% 29.97 in 10.0 mi WSW 16.1 mph 23.0 mph N/A   Clear
5:15 PM 82.4 °F 86.3 °F 69.8 °F 66% 29.98 in 10.0 mi WSW 15.0 mph 23.0 mph N/A   Clear
5:35 PM 80.6 °F 84.6 °F 71.6 °F 74% 29.97 in 10.0 mi WSW 13.8 mph 19.6 mph N/A   Clear
5:55 PM 80.6 °F 83.9 °F 69.8 °F 70% 29.98 in 10.0 mi WSW 13.8 mph 24.2 mph N/A   Clear
6:15 PM 80.6 °F 83.9 °F 69.8 °F 70% 29.98 in 10.0 mi WSW 13.8 mph - N/A   Clear
6:35 PM 78.8 °F - 69.8 °F 74% 29.98 in 10.0 mi WSW 13.8 mph - N/A   Clear
6:55 PM 77.0 °F - 68.0 °F 74% 29.99 in 10.0 mi West 13.8 mph - N/A   Clear
7:15 PM 75.2 °F - 68.0 °F 78% 29.99 in 10.0 mi West 10.4 mph - N/A   Clear
7:35 PM 75.2 °F - 68.0 °F 78% 30.00 in 10.0 mi West 11.5 mph - N/A   Clear
8:15 PM 73.4 °F - 68.0 °F 83% 30.01 in 10.0 mi WSW 9.2 mph - N/A   Clear
8:35 PM 73.4 °F - 68.0 °F 83% 30.02 in 10.0 mi West 10.4 mph - N/A   Clear
8:55 PM 71.6 °F - 68.0 °F 88% 30.03 in 10.0 mi West 9.2 mph - N/A   Clear
9:15 PM 71.6 °F - 68.0 °F 88% 30.03 in 10.0 mi WSW 8.1 mph - N/A   Clear
9:35 PM 71.6 °F - 68.0 °F 88% 30.04 in 10.0 mi WSW 12.7 mph - N/A   Clear
9:55 PM 71.6 °F - 69.8 °F 94% 30.04 in 10.0 mi WSW 12.7 mph - N/A   Clear
10:15 PM 71.6 °F - 68.0 °F 88% 30.04 in 10.0 mi WSW 10.4 mph 16.1 mph N/A Thunderstorm Clear
10:35 PM 71.6 °F - 68.0 °F 88% 30.05 in 10.0 mi West 6.9 mph - N/A Thunderstorm Clear
10:55 PM 71.6 °F - 68.0 °F 88% 30.05 in 10.0 mi WSW 8.1 mph - N/A Thunderstorm Clear
11:15 PM 71.6 °F - 68.0 °F 88% 30.05 in 10.0 mi WNW 5.8 mph - N/A Thunderstorm Clear
11:35 PM 71.6 °F - 68.0 °F 88% 30.05 in 10.0 mi NNW 4.6 mph - N/A   Partly Cloudy
11:55 PM 71.6 °F - 68.0 °F 88% 30.06 in 8.0 mi NE 4.6 mph - N/A   Mostly Cloudy